Location: Atherton
(17.2661°S, 145.4859°E)
Time: 00:05:33
(UTC+10:00)

Vanguard 1 - Pass Details

Date: 03 July 2025
Orbit: 649 x 3822 km, 34.2° (Epoch: 17 July)

Event Time Altitude Azimuth Distance (km) Brightness Sun altitude
Rises 18:45:49 0° 271° (W) 7,891 16.2 -11.9°
Reaches altitude 10° 18:52:10 10° 264° (W) 6,658 15.3 -13.3°
Maximum altitude 19:10:59 43° 198° (SSW) 3,363 12.7 -17.5°
Enters shadow 19:19:45 20° 138° (SE) 3,666 12.4 -19.5°
Drops below altitude 10° 19:22:14 10° 128° (SE) 4,104 - -20.0°
Sets 19:25:06 0° 120° (ESE) 4,743 - -20.7°
